TimeCST,TemperatureF,Dew PointF,Humidity,Sea Level PressureIn,VisibilityMPH,Wind Direction,Wind SpeedMPH,Gust SpeedMPH,PrecipitationIn,Events,Conditions,WindDirDegrees,DateUTC
12:15 AM,33.1,30.7,91,30.00,10.0,WNW,8.1,-,N/A,,Overcast,290,2013-02-15 06:15:00
12:35 AM,33.1,30.6,90,30.01,10.0,WNW,9.2,-,N/A,,Overcast,290,2013-02-15 06:35:00
12:55 AM,32.9,30.7,92,30.01,10.0,WNW,9.2,-,N/A,,Overcast,290,2013-02-15 06:55:00
1:15 AM,32.7,30.2,90,30.02,10.0,WNW,9.2,-,N/A,,Overcast,300,2013-02-15 07:15:00
1:35 AM,32.0,29.1,89,30.02,10.0,WNW,11.5,-,N/A,,Mostly Cloudy,300,2013-02-15 07:35:00
1:55 AM,31.6,28.6,88,30.03,10.0,WNW,11.5,-,N/A,,Clear,300,2013-02-15 07:55:00
2:15 AM,31.6,28.4,88,30.03,10.0,NW,11.5,-,N/A,,Mostly Cloudy,310,2013-02-15 08:15:00
2:35 AM,32.0,28.2,86,30.04,10.0,WNW,15.0,-,N/A,,Overcast,300,2013-02-15 08:35:00
2:55 AM,32.0,27.9,85,30.05,10.0,NW,12.7,-,N/A,,Overcast,310,2013-02-15 08:55:00
3:15 AM,31.6,27.1,83,30.05,10.0,WNW,12.7,-,N/A,,Overcast,300,2013-02-15 09:15:00
3:35 AM,31.5,27.0,83,30.05,10.0,WNW,12.7,-,N/A,,Overcast,300,2013-02-15 09:35:00
3:55 AM,31.3,26.4,82,30.06,10.0,NW,15.0,-,N/A,,Overcast,310,2013-02-15 09:55:00
4:15 AM,30.2,26.6,86,30.07,10.0,NW,12.7,-,N/A,,Overcast,310,2013-02-15 10:15:00
4:35 AM,30.4,25.0,80,30.07,10.0,WNW,16.1,21.9,N/A,,Overcast,300,2013-02-15 10:35:00
4:55 AM,30.2,24.4,79,30.08,10.0,WNW,15.0,21.9,N/A,,Overcast,300,2013-02-15 10:55:00
5:15 AM,29.8,23.9,79,30.09,10.0,WNW,16.1,-,N/A,,Overcast,300,2013-02-15 11:15:00
5:35 AM,29.1,23.0,78,30.11,10.0,WNW,16.1,24.2,N/A,,Overcast,290,2013-02-15 11:35:00
5:55 AM,28.6,22.1,77,30.11,10.0,WNW,18.4,24.2,N/A,,Overcast,290,2013-02-15 11:55:00
6:15 AM,27.5,20.3,74,30.12,10.0,West,17.3,21.9,N/A,,Overcast,280,2013-02-15 12:15:00
6:35 AM,26.4,19.8,76,30.13,10.0,West,15.0,-,N/A,,Overcast,280,2013-02-15 12:35:00
6:55 AM,25.7,19.6,78,30.14,10.0,West,12.7,19.6,N/A,,Overcast,280,2013-02-15 12:55:00
7:15 AM,24.6,16.5,71,30.16,10.0,West,18.4,21.9,N/A,,Scattered Clouds,280,2013-02-15 13:15:00
7:35 AM,23.9,15.1,69,30.17,10.0,WNW,15.0,-,N/A,,Clear,290,2013-02-15 13:35:00
7:55 AM,24.6,15.3,68,30.18,10.0,WNW,16.1,-,N/A,,Clear,290,2013-02-15 13:55:00
8:15 AM,24.6,13.8,64,30.19,10.0,West,16.1,-,N/A,,Clear,280,2013-02-15 14:15:00
8:35 AM,24.8,14.0,64,30.20,10.0,West,15.0,-,N/A,,Clear,280,2013-02-15 14:35:00
8:55 AM,25.2,14.2,63,30.21,10.0,WNW,15.0,-,N/A,,Clear,300,2013-02-15 14:55:00
9:15 AM,25.7,14.2,62,30.21,10.0,WNW,10.4,-,N/A,,Clear,300,2013-02-15 15:15:00
9:35 AM,26.4,14.7,61,30.21,10.0,WNW,10.4,-,N/A,,Clear,300,2013-02-15 15:35:00
9:55 AM,27.1,14.9,60,30.21,10.0,WNW,13.8,-,N/A,,Clear,300,2013-02-15 15:55:00
10:15 AM,27.9,14.2,57,30.21,10.0,WNW,10.4,-,N/A,,Clear,300,2013-02-15 16:15:00
10:35 AM,28.2,14.5,57,30.21,10.0,WNW,10.4,-,N/A,,Clear,300,2013-02-15 16:35:00
10:55 AM,29.1,15.4,57,30.21,10.0,WNW,11.5,17.3,N/A,,Clear,300,2013-02-15 16:55:00
11:15 AM,29.1,15.1,56,30.21,10.0,WNW,8.1,11.5,N/A,,Clear,300,2013-02-15 17:15:00
11:35 AM,30.0,16.2,56,30.21,10.0,WNW,11.5,16.1,N/A,,Clear,300,2013-02-15 17:35:00
11:55 AM,30.2,15.8,55,30.21,10.0,WNW,11.5,-,N/A,,Clear,300,2013-02-15 17:55:00
12:15 PM,30.2,16.3,56,30.20,10.0,WNW,13.8,-,N/A,,Clear,300,2013-02-15 18:15:00
12:35 PM,30.9,17.1,57,30.19,10.0,WNW,11.5,16.1,N/A,,Clear,300,2013-02-15 18:35:00
12:55 PM,31.1,17.1,56,30.19,10.0,WNW,11.5,18.4,N/A,,Clear,300,2013-02-15 18:55:00
1:15 PM,31.1,16.7,55,30.18,10.0,WNW,9.2,-,N/A,,Clear,300,2013-02-15 19:15:00
1:35 PM,32.0,17.1,54,30.18,10.0,WNW,11.5,17.3,N/A,,Scattered Clouds,300,2013-02-15 19:35:00
1:55 PM,32.0,16.0,52,30.18,10.0,WNW,16.1,-,N/A,,Scattered Clouds,300,2013-02-15 19:55:00
2:15 PM,32.0,16.3,52,30.17,10.0,WNW,13.8,-,N/A,,Clear,300,2013-02-15 20:15:00
2:35 PM,32.0,15.8,51,30.17,10.0,WNW,13.8,17.3,N/A,,Scattered Clouds,300,2013-02-15 20:35:00
2:55 PM,32.2,14.0,47,30.18,10.0,WNW,12.7,20.7,N/A,,Mostly Cloudy,290,2013-02-15 20:55:00
3:15 PM,31.5,13.8,48,30.18,10.0,WNW,13.8,18.4,N/A,,Scattered Clouds,300,2013-02-15 21:15:00
3:35 PM,31.5,15.3,51,30.18,10.0,WNW,12.7,18.4,N/A,,Scattered Clouds,290,2013-02-15 21:35:00
3:55 PM,30.9,14.5,51,30.18,10.0,WNW,13.8,-,N/A,,Scattered Clouds,300,2013-02-15 21:55:00
4:15 PM,31.1,16.2,54,30.18,10.0,WNW,10.4,16.1,N/A,,Mostly Cloudy,290,2013-02-15 22:15:00
4:35 PM,30.2,16.3,56,30.18,10.0,WNW,16.1,-,N/A,,Mostly Cloudy,300,2013-02-15 22:35:00
4:55 PM,29.8,14.4,53,30.18,10.0,WNW,18.4,-,N/A,,Mostly Cloudy,300,2013-02-15 22:55:00
5:15 PM,28.9,13.6,53,30.19,10.0,WNW,16.1,-,N/A,,Scattered Clouds,300,2013-02-15 23:15:00
5:35 PM,28.4,13.6,54,30.19,10.0,WNW,12.7,-,N/A,,Mostly Cloudy,290,2013-02-15 23:35:00
5:55 PM,27.9,14.0,56,30.20,10.0,WNW,15.0,18.4,N/A,,Scattered Clouds,290,2013-02-15 23:55:00
6:15 PM,27.1,16.9,65,30.20,10.0,WNW,18.4,-,N/A,,Clear,300,2013-02-16 00:15:00
6:35 PM,26.2,16.5,67,30.20,10.0,WNW,16.1,24.2,N/A,,Clear,300,2013-02-16 00:35:00
6:55 PM,26.1,17.1,69,30.20,10.0,WNW,15.0,-,N/A,,Clear,300,2013-02-16 00:55:00
7:15 PM,25.7,16.7,69,30.21,10.0,WNW,12.7,-,N/A,,Clear,290,2013-02-16 01:15:00
7:35 PM,25.7,16.3,68,30.20,10.0,West,11.5,-,N/A,,Mostly Cloudy,280,2013-02-16 01:35:00
7:55 PM,26.1,16.3,67,30.20,10.0,WNW,11.5,-,N/A,,Overcast,290,2013-02-16 01:55:00
8:15 PM,26.1,16.0,66,30.20,10.0,NW,19.6,23.0,N/A,,Overcast,310,2013-02-16 02:15:00
8:35 PM,24.8,15.4,68,30.20,10.0,WNW,13.8,-,N/A,,Scattered Clouds,300,2013-02-16 02:35:00
8:55 PM,24.6,16.3,71,30.20,10.0,WNW,10.4,-,N/A,,Scattered Clouds,290,2013-02-16 02:55:00
9:15 PM,24.6,16.7,72,30.20,10.0,WNW,8.1,-,N/A,,Scattered Clouds,290,2013-02-16 03:15:00
9:35 PM,24.8,16.9,72,30.20,10.0,NW,12.7,16.1,N/A,,Mostly Cloudy,310,2013-02-16 03:35:00
9:55 PM,24.6,14.2,65,30.20,10.0,WNW,16.1,23.0,N/A,,Overcast,300,2013-02-16 03:55:00
10:15 PM,23.5,14.0,67,30.20,10.0,NW,15.0,-,N/A,,Scattered Clouds,310,2013-02-16 04:15:00
10:35 PM,23.2,13.3,66,30.20,10.0,NW,15.0,23.0,N/A,,Mostly Cloudy,310,2013-02-16 04:35:00
10:55 PM,22.8,13.3,67,30.20,10.0,NW,12.7,-,N/A,,Scattered Clouds,310,2013-02-16 04:55:00
11:15 PM,22.1,12.2,66,30.20,10.0,NW,15.0,23.0,N/A,,Scattered Clouds,310,2013-02-16 05:15:00
11:35 PM,21.6,11.1,64,30.19,10.0,WNW,13.8,-,N/A,,Clear,300,2013-02-16 05:35:00
11:55 PM,21.2,12.4,69,30.19,10.0,WNW,15.0,-,N/A,,Scattered Clouds,290,2013-02-16 05:55:00